User: anonymous
Location: Unspecified
(0.0000°N, 0.0000°E)
Time: 03:49:26
(UTC+00:00)
Language:

AMOS 1 - Orbit

View from above orbital plane
View from above orbital plane
View from above satellite
View from above satellite

Ground track
Ground track

The orbit data is extracted from the following two-line orbital elements,

1 23865U 96030B   14105.73823501 -.00000157  00000-0  00000+0 0   716
2 23865 004.9343 062.8284 0010550 060.5758 155.0506 00.97118618 65409
Epoch (UTC): 15 April 2014 17:43:03
Eccentricity: 0.0010550
inclination: 4.9343°
perigee height: 36648 km
apogee height: 36739 km
right ascension of ascending node: 62.8284°
argument of perigee: 60.5758°
revolutions per day: 0.97118618
mean anomaly at epoch: 155.0506°
orbit number at epoch: 6540

The dashed part of the orbit path shows where the satellite is in the earth's shadow,  

DLR